Location: Shades State Park
(39.9310°N, 87.0690°W)
Time: 10:22:20
(UTC-05:00)

ISS - Visible Passes

Search period start: 19 January 2018 00:00
Search period end: 29 January 2018 00:00
Orbit: 402 x 407 km, 51.6° (Epoch: 19 January)

Date Brightness Start Highest point End Pass type
(mag) Time Alt. Az. Time Alt. Az. Time Alt. Az.
23 Jan -1.6 20:02:34 10° SW 20:03:47 20° SSW 20:03:47 20° SSW visible
24 Jan -2.6 19:10:46 10° SSW 19:13:31 25° SE 19:14:02 24° ESE visible
25 Jan -3.0 19:54:14 10° WSW 19:56:52 50° W 19:56:52 50° W visible
26 Jan -3.8 19:01:53 10° SW 19:05:06 66° SE 19:06:56 23° ENE visible
26 Jan -0.4 20:39:18 10° WNW 20:39:36 12° WNW 20:39:36 12° WNW visible
27 Jan -2.4 19:46:21 10° W 19:49:16 30° NNW 19:49:35 29° NNW visible
28 Jan -3.2 18:53:36 10° WSW 18:56:46 50° NW 18:59:29 13° NE visible
28 Jan -0.5 20:32:01 10° NW 20:32:09 10° NW 20:32:09 10° NW visible
